GW3481 Weather Reports


time (UTC)temp
C
wind
direction
speed
KPH
gust
KPH
rain 1hr
cm
rain 24hr
cm
rain mn
cm
humidity
%
barometer
mb
20260906051522 28 144 0.0 0.0 0.00 0.00 0.00 71 1012.6
20260906050003 28 144 0.0 3.2 0.00 0.00 0.00 70 1012.6
20260906044505 28 144 0.0 3.2 0.00 0.00 0.00 70 1012.5
20260906043016 28 144 0.0 3.2 0.00 0.00 0.00 71 1012.5
20260906041518 28 144 0.0 1.6 0.00 0.00 0.00 74 1012.5
20260906040026 28 144 0.0 0.0 0.00 0.00 0.00 73 1012.5
20260906034505 28 144 0.0 0.0 0.00 0.00 0.00 73 1012.4
20260906033009 28 144 0.0 0.0 0.00 0.00 0.00 72 1012.6
20260906031516 28 144 0.0 1.6 0.00 0.00 0.00 70 1012.8
20260906030018 29 144 0.0 3.2 0.00 0.00 0.00 70 1012.8
20260906024528 29 144 0.0 1.6 0.00 0.00 0.00 69 1012.6
20260906023005 29 144 0.0 0.0 0.00 0.00 0.00 69 1012.4
20260906021514 30 144 0.0 0.0 0.00 0.00 0.00 68 1012.2
20260906020017 30 144 0.0 3.2 0.00 0.00 0.00 67 1012.0
20260906014528 31 144 0.0 0.0 0.00 0.00 0.00 65 1011.7
20260906013032 31 144 0.0 3.2 0.00 0.00 0.00 63 1011.5
20260906011531 31 144 0.0 1.6 0.00 0.00 0.00 61 1011.3
20260906010014 32 144 0.0 0.0 0.00 0.00 0.00 60 1011.2
20260906004518 32 144 0.0 0.0 0.00 0.00 0.00 55 1011.3
20260906003028 33 144 0.0 0.0 0.00 0.00 0.00 53 1011.3
20260906001531 34 144 0.0 0.0 0.00 0.00 0.00 50 1011.3
20260906000032 35 144 0.0 0.0 0.00 0.00 0.00 49 1011.4
20260905234517 35 144 0.0 3.2 0.00 0.00 0.00 48 1011.4
20260905233023 36 144 0.0 3.2 0.00 0.00 0.00 47 1011.4
20260905231530 36 144 0.0 6.4 0.00 0.00 0.00 47 1011.4
20260905230009 36 161 0.0 3.2 0.00 0.00 0.00 47 1011.5
20260905224515 37 161 1.6 8.0 0.00 0.00 0.00 43 1011.5
20260905223030 37 162 1.6 11.3 0.00 0.00 0.00 41 1011.5
20260905221502 37 146 0.0 8.0 0.00 0.00 0.00 40 1011.5
20260905220007 37 155 1.6 9.7 0.00 0.00 0.00 40 1011.5
20260905214512 37 193 3.2 8.0 0.00 0.00 0.00 43 1011.4
20260905213019 37 194 6.4 11.3 0.00 0.00 0.00 40 1011.5
20260905211523 37 148 3.2 11.3 0.00 0.00 0.00 44 1011.6
20260905210003 37 131 0.0 6.4 0.00 0.00 0.00 41 1011.7
20260905204508 37 136 4.8 11.3 0.00 0.00 0.00 40 1012.0
20260905203012 37 130 4.8 12.9 0.00 0.00 0.00 42 1012.3
20260905201521 37 112 0.0 9.7 0.00 0.00 0.00 41 1012.4
20260905200029 37 179 4.8 9.7 0.00 0.00 0.00 42 1012.7
20260905194527 37 143 4.8 14.5 0.00 0.00 0.00 41 1012.9
20260905193008 37 55 3.2 14.5 0.00 0.00 0.00 42 1013.1
20260905191516 36 232 6.4 16.1 0.00 0.00 0.00 44 1013.4
20260905190039 36 176 8.0 17.7 0.00 0.00 0.00 44 1013.5
20260905184529 36 203 3.2 14.5 0.00 0.00 0.00 45 1013.6
20260905183028 37 127 4.8 12.9 0.00 0.00 0.00 46 1013.7
20260905181516 36 159 8.0 14.5 0.00 0.00 0.00 45 1013.7
20260905180020 36 14 3.2 16.1 0.00 0.00 0.00 39 1013.8
20260905174522 36 295 0.0 16.1 0.00 0.00 0.00 42 1014.0
20260905173029 36 271 4.8 9.7 0.00 0.00 0.00 43 1014.1
20260905171535 36 11 1.6 12.9 0.00 0.00 0.00 44 1014.2
20260905170012 35 121 6.4 14.5 0.00 0.00 0.00 45 1014.5
20260905164527 35 83 6.4 17.7 0.00 0.00 0.00 46 1014.7
20260905163027 35 130 11.3 19.3 0.00 0.00 0.00 47 1015.0
20260905161531 35 111 6.4 12.9 0.00 0.00 0.00 49 1015.0
20260905160032 35 104 4.8 16.1 0.00 0.00 0.00 49 1015.0
20260905154514 35 54 8.0 16.1 0.00 0.00 0.00 49 1015.1
20260905153029 34 55 3.2 14.5 0.00 0.00 0.00 52 1015.1
20260905151531 33 42 8.0 14.5 0.00 0.00 0.00 53 1015.1
20260905150032 33 26 6.4 12.9 0.00 0.00 0.00 54 1015.2
20260905144531 32 38 6.4 12.9 0.00 0.00 0.00 57 1015.2
20260905143021 32 65 8.0 14.5 0.00 0.00 0.00 59 1015.1
20260905141524 31 55 6.4 12.9 0.00 0.00 0.00 62 1015.2
20260905140004 30 27 6.4 9.7 0.00 0.00 0.00 65 1015.0
20260905134511 30 51 3.2 6.4 0.00 0.00 0.00 67 1015.0
20260905133022 28 71 4.8 8.0 0.00 0.00 0.00 69 1015.0
20260905131531 28 20 0.0 6.4 0.00 0.00 0.00 72 1015.0
20260905130036 27 20 0.0 4.8 0.00 0.00 0.00 74 1014.7
20260905124506 26 20 1.6 4.8 0.00 0.00 0.00 76 1014.6
20260905123011 26 242 0.0 3.2 0.00 0.00 0.00 79 1014.5
20260905121516 25 242 1.6 4.8 0.00 0.00 0.00 80 1014.3
20260905120024 25 242 0.0 0.0 0.00 0.00 0.00 81 1014.2
20260905114528 25 242 0.0 0.0 0.00 0.00 0.00 82 1014.1
20260905113012 25 242 0.0 3.2 0.00 0.00 0.00 83 1014.1
20260905111513 25 242 0.0 0.0 0.00 0.00 0.00 83 1014.0
20260905110018 25 242 0.0 0.0 0.00 0.00 0.00 83 1014.1
20260905104525 25 242 0.0 4.8 0.00 0.00 0.00 83 1014.0
20260905103028 25 242 1.6 4.8 0.00 0.00 0.00 83 1014.0
20260905101508 25 242 3.2 4.8 0.00 0.00 0.00 83 1014.1
20260905100021 25 16 0.0 6.4 0.00 0.00 0.00 82 1014.2
20260905094521 25 266 1.6 11.3 0.00 0.00 0.00 82 1014.0
20260905093027 25 15 1.6 4.8 0.00 0.00 0.00 83 1013.9
20260905091529 25 16 1.6 6.4 0.00 0.00 0.00 84 1013.8
20260905090013 25 161 0.0 0.0 0.00 0.00 0.00 84 1013.8
20260905084522 26 161 0.0 3.2 0.00 0.00 0.00 83 1013.8
20260905083025 25 161 0.0 6.4 0.00 0.00 0.00 83 1013.7
20260905081529 25 161 0.0 0.0 0.00 0.00 0.00 83 1013.8
20260905080031 25 161 0.0 0.0 0.00 0.00 0.00 83 1013.8
20260905074516 26 161 0.0 0.0 0.00 0.00 0.00 83 1013.9
20260905073024 26 161 0.0 1.6 0.00 0.00 0.00 82 1013.9
20260905071503 26 161 0.0 3.2 0.00 0.00 0.00 83 1013.9
20260905070008 26 161 0.0 0.0 0.00 0.00 0.00 82 1013.9
20260905064511 26 161 0.0 0.0 0.00 0.00 0.00 83 1013.8
20260905063003 26 161 0.0 0.0 0.00 0.00 0.00 81 1014.0
20260905061504 26 161 0.0 1.6 0.00 0.00 0.00 81 1014.0
20260905060005 26 161 0.0 0.0 0.00 0.00 0.00 80 1014.0
20260905054529 26 161 0.0 1.6 0.00 0.00 0.00 79 1013.9
20260905053014 27 161 0.0 3.2 0.00 0.00 0.00 79 1013.9